Weather History for Baghdad, Iraq

Change the Weather History Date:

Friday, January 11, 2008

  Actual Average Record
Temperature  
Mean Temperature 37 °F -  
Max Temperature 41 °F - - ()
Min Temperature 33 °F - - ()
Degree Days  
Heating Degree Days 28    
Moisture  
Dew Point 35 °F    
Average Humidity 88    
Maximum Humidity 100    
Minimum Humidity 76    
Precipitation  
Precipitation 0.00 in - - ()
Sea Level Pressure  
Sea Level Pressure 30.14 in    
Wind  
Wind Speed 5 mph ()    
Max Wind Speed 12 mph    
Max Gust Speed -    
Visibility 4.3 miles    
Events Rain , Snow    
T = Trace of Precipitation, MM = Missing Value Source: Averaged Metar Reports

Daily Weather History Graph

Daily Weather History Graph

Search for Another Location

Airport:

Trip Planner

Search our weather history database for the weather conditions in past years. The results will help you decide how hot, cold, wet, or windy it might be!

Date:

Astronomy

Jan. 11, 2008 Rise Set
Actual Time 7:07 AM AST 5:14 PM AST
Civil Twilight 6:40 AM AST 5:41 PM AST
Nautical Twilight 6:09 AM AST 6:12 PM AST
Astronomical Twilight 5:39 AM AST 6:41 PM AST
Moon 9:03 AM AST (1/11) 8:14 PM AST (1/11)
Length of Visible Light 11h 01m
Length of Day
10h 06m
Waxing Crescent, 9% of the Moon is Illuminated
Jan 11
Waxing Crescent
Jan 15
First Quarter
Jan 22
Full
Jan 30
Last Quarter
Feb 7
New

Hourly Weather History & Observations

Time (AST) Temp. Windchill Dew Point Humidity Pressure Visibility Wind Dir Wind Speed Gust Speed Precip Events Conditions
12:59 AM 41.0 °F 37.1 °F 33.8 °F 76% 30.15 in 5.6 mi Variable 5.8 mph - N/A Rain Light Rain
1:55 AM 39.2 °F 33.0 °F 33.8 °F 81% 30.14 in 5.0 mi North 9.2 mph - N/A Rain Light Rain
3:55 AM 37.4 °F 32.1 °F 35.6 °F 93% 30.12 in 5.0 mi Variable 6.9 mph - N/A Rain , Snow Light Rain
4:26 AM 37.4 °F 32.1 °F 35.6 °F 93% 30.11 in 3.7 mi Variable 6.9 mph - N/A Rain , Snow Light Rain
4:55 AM 37.4 °F 32.8 °F 35.6 °F 93% 30.10 in 3.7 mi Variable 5.8 mph - N/A Rain , Snow Light Rain
5:55 AM 35.6 °F 30.7 °F 33.8 °F 93% 30.11 in 3.7 mi Variable 5.8 mph - N/A Rain , Snow Light Rain
6:55 AM 35.6 °F 30.7 °F 33.8 °F 93% 30.12 in - Variable 5.8 mph - N/A Snow Light Snow Showers
7:37 AM 33.8 °F 29.6 °F 33.8 °F 100% 30.25 in 1.0 mi Variable 4.6 mph - N/A Snow Light Snow Showers
7:55 AM 33.8 °F 30.8 °F 33.8 °F 100% 30.14 in 1.5 mi Variable 3.5 mph - N/A Snow Light Snow
8:55 AM 35.6 °F 29.2 °F 33.8 °F 93% 30.14 in 1.2 mi North 8.1 mph - N/A Snow Light Snow
9:30 AM 35.6 °F 31.7 °F 33.8 °F 93% 30.14 in - NNW 4.6 mph - N/A Rain , Snow Light Rain
9:55 AM 35.6 °F 29.9 °F 33.8 °F 93% 30.15 in 3.1 mi North 6.9 mph - N/A Rain Light Rain
10:40 AM 37.4 °F 31.4 °F 35.6 °F 93% 30.13 in 3.1 mi North 8.1 mph - N/A   Overcast
10:55 AM 37.4 °F 30.3 °F 35.6 °F 93% 30.14 in 3.1 mi NNW 10.4 mph - N/A   Overcast
11:55 AM 39.2 °F 34.2 °F 35.6 °F 87% 30.17 in 3.7 mi NNW 6.9 mph - N/A   Overcast
12:55 PM 39.2 °F 32.0 °F 35.6 °F 87% 30.11 in 5.6 mi NNW 11.5 mph - N/A   Overcast
1:32 PM 41.0 °F 36.4 °F 35.6 °F 81% 30.09 in 6.2 mi North 6.9 mph - N/A   Scattered Clouds
1:55 PM 41.0 °F 37.1 °F 35.6 °F 81% 30.10 in 6.2 mi NNW 5.8 mph - N/A   Mostly Cloudy
2:55 PM 41.0 °F 34.7 °F 35.6 °F 81% 30.10 in 6.2 mi NNW 10.4 mph - N/A   Mostly Cloudy
3:55 PM 41.0 °F 37.1 °F 33.8 °F 76% 30.11 in 6.2 mi Variable 5.8 mph - N/A   Mostly Cloudy
4:55 PM 41.0 °F 37.1 °F 35.6 °F 81% 30.12 in 5.6 mi NNW 5.8 mph - N/A   Smoke
5:55 PM 41.0 °F 39.0 °F 35.6 °F 81% 30.13 in 5.6 mi Variable 3.5 mph - N/A   Smoke
7:55 PM 37.4 °F - 33.8 °F 87% 30.14 in 5.6 mi Calm Calm - N/A   Partly Cloudy
8:55 PM 37.4 °F - 35.6 °F 93% 30.16 in 5.6 mi Calm Calm - N/A   Clear
9:55 PM 37.4 °F - 33.8 °F 87% 30.16 in 5.0 mi WSW 1.2 mph - N/A   Clear
10:55 PM 35.6 °F - 32.0 °F 87% 30.16 in 3.7 mi Calm Calm - N/A   Clear
11:55 PM 35.6 °F - 33.8 °F 93% 30.16 in 3.7 mi WSW 1.2 mph - N/A   Clear